Location: Saint Peter Port
(49.4500°N, 2.5330°W)
Time: 05:36:26
(UTC+01:00)

Cosmos 2242 Rocket - Visible Passes

Search period start: 19 April 2015 00:00
Search period end: 29 April 2015 00:00
Orbit: 619 x 653 km, 82.5° (Epoch: 18 April)

Date Brightness Start Highest point End Pass type
(mag) Time Alt. Az. Time Alt. Az. Time Alt. Az.
19 Apr 6.9 04:50:12 10° NNE 04:52:48 15° ENE 04:55:32 10° E visible
19 Apr 7.0 20:45:35 10° WSW 20:48:32 17° WNW 20:51:24 10° NNW visible
20 Apr 6.1 05:12:03 10° N 05:15:52 27° ENE 05:19:44 10° SE visible
22 Apr 6.9 04:20:23 10° NNE 04:22:30 13° ENE 04:24:49 10° E visible
23 Apr 6.3 04:42:00 10° NNE 04:45:37 23° ENE 04:49:18 10° ESE visible
24 Apr 5.1 05:04:14 10° N 05:08:33 42° ENE 05:12:53 10° SE visible
25 Apr 7.0 03:50:42 10° NE 03:52:13 12° ENE 03:53:54 10° E visible
26 Apr 6.4 04:11:59 10° NNE 04:15:20 21° ENE 04:18:49 10° ESE visible
27 Apr 5.3 04:34:07 10° N 04:38:19 37° ENE 04:42:34 10° SE visible
28 Apr 7.1 03:21:46 10° NE 03:21:52 10° ENE 03:22:14 10° ENE visible
28 Apr 4.0 04:56:35 10° N 05:01:07 70° ENE 05:05:40 10° SSE visible
